User: anonymous   Login
Location: Unspecified
(0.0000°N, 0.0000°E)
Time: 13:08:49
(UTC+00:00)
Language:

ISS - Orbit

View from above orbital plane
View from above orbital plane
View from above satellite
View from above satellite

Ground track
Ground track

The orbit data is extracted from the following two-line orbital elements,

1 25544U 98067A   19237.24159795  .00016717  00000-0  10270-3 0  9056
2 25544  51.6444  18.7132 0007878 325.2106  34.8529 15.50407099 25960
Epoch (UTC): 25 August 2019 05:47:54
Eccentricity: 0.0007878
inclination: 51.6444°
perigee height: 410 km
apogee height: 421 km
right ascension of ascending node: 18.7132°
argument of perigee: 325.2106°
revolutions per day: 15.50407099
mean anomaly at epoch: 34.8529°
orbit number at epoch: 2596

The dashed part of the orbit path shows where the satellite is in the earth's shadow,  

DLR